This is the latest recevied weather packets stored in our database for station/object AB4CZ-1. If no packets are shown the sender has not sent any weather packets the latest 10 day(s).
| Time | Temp. | Humidity | Pressure | Rain* | Wind** | Luminosity | Snow |
|---|---|---|---|---|---|---|---|
| 1778157093 | 17.78° C | 99% | 1012.9 hPa | 5.84 mm | - | - | - |
| 1778156926 | 17.78° C | 99% | 1013.1 hPa | 5.08 mm | - | - | - |
| 1778156793 | 17.78° C | 99% | 1013.1 hPa | 5.08 mm | - | - | - |
| 1778156493 | 17.78° C | 99% | 1012.9 hPa | 4.57 mm | - | - | - |
| 1778156193 | 17.78° C | 99% | 1012.4 hPa | 4.83 mm | - | - | - |
| 1778155893 | 17.78° C | 99% | 1012.4 hPa | 5.08 mm | - | - | - |
| 1778155593 | 17.78° C | 99% | 1012.3 hPa | 5.08 mm | - | - | - |
| 1778155293 | 17.78° C | 99% | 1012.3 hPa | 4.32 mm | - | - | - |
| 1778154997 | 17.78° C | 99% | 1012.1 hPa | 4.32 mm | - | - | - |
| 1778154771 | 17.78° C | 99% | 1011.8 hPa | 4.32 mm | - | - | - |
| 1778154705 | 17.78° C | 99% | 1011.8 hPa | 4.32 mm | - | - | - |
| 1778154393 | 17.78° C | 99% | 1011.4 hPa | 4.32 mm | - | - | - |
| 1778154093 | 17.78° C | 99% | 1011.5 hPa | 4.06 mm | - | - | - |
| 1778153793 | 17.78° C | 99% | 1011.3 hPa | 3.81 mm | - | - | - |
| 1778153503 | 17.78° C | 99% | 1011.2 hPa | 3.05 mm | - | - | - |
| 1778153193 | 17.78° C | 99% | 1011.1 hPa | 2.79 mm | - | - | - |
| 1778152905 | 17.78° C | 99% | 1011.2 hPa | 2.79 mm | - | - | - |
| 1778152593 | 17.78° C | 99% | 1011.4 hPa | 2.29 mm | - | - | - |
| 1778152305 | 17.78° C | 99% | 1011.2 hPa | 1.78 mm | - | - | - |
| 1778151993 | 18.33° C | 99% | 1011.1 hPa | 1.52 mm | - | - | - |
| 1778151693 | 18.33° C | 99% | 1011 hPa | 1.78 mm | - | - | - |
| 1778151413 | 18.33° C | 99% | 1010.9 hPa | 2.03 mm | - | - | - |
| 1778151095 | 18.33° C | 99% | 1010.4 hPa | 2.03 mm | - | - | - |
| 1778150793 | 18.33° C | 99% | 1010.4 hPa | 1.78 mm | - | - | - |
| 1778150493 | 17.78° C | 99% | 1010.5 hPa | 2.03 mm | - | - | - |
* Rain latest hour (hover to see other rain measurements)
** Current wind speed in m/s (hover to see current wind gust speed)